Location: Seasalter
(51.3333°N, 1.0167°E)
Time: 18:27:06
(UTC+00:00)

Cosmos 1680 Rocket - Pass Details

Date: 26 September 2023
Orbit: 759 x 779 km, 74.1° (Epoch: 07 December)

Event Time Altitude Azimuth Distance (km) Brightness Sun altitude
Rises 02:18:17 0° 337° (NNW) 3,274 7.0 -30.6°
Reaches altitude 10° 02:20:44 10° 342° (NNW) 2,344 6.3 -30.3°
Maximum altitude 02:25:58 55° 60° (ENE) 938 4.1 -29.7°
Enters shadow 02:28:41 27° 126° (SE) 1,456 5.0 -29.4°
